Time,TemperatureF,DewpointF,PressureIn,WindDirection,WindDirectionDegrees,WindSpeedMPH,WindSpeedGustMPH,Humidity,HourlyPrecipIn,Conditions,Clouds,dailyrainin,SoftwareType,DateUTC
2013-08-06 00:02:00,49.8,47.0,30.09,SE,141,0.0,-999.0,90,-99.99,,,0.00,weatherlink.com 1.10,2013-08-06 04:02:00,
2013-08-06 00:17:00,49.3,47.0,30.09,SE,141,0.0,-999.0,91,-99.99,,,0.00,weatherlink.com 1.10,2013-08-06 04:17:00,
2013-08-06 00:33:00,49.0,47.0,30.10,SE,141,0.0,-999.0,92,-99.99,,,0.00,weatherlink.com 1.10,2013-08-06 04:33:00,
2013-08-06 00:48:00,48.6,46.0,30.10,SE,141,0.0,-999.0,92,-99.99,,,0.00,weatherlink.com 1.10,2013-08-06 04:48:00,
2013-08-06 01:03:00,48.4,46.0,30.10,SE,141,0.0,-999.0,92,-99.99,,,0.00,weatherlink.com 1.10,2013-08-06 05:03:00,
2013-08-06 01:18:00,48.0,46.0,30.09,SE,141,0.0,-999.0,93,-99.99,,,0.00,weatherlink.com 1.10,2013-08-06 05:18:00,
2013-08-06 01:33:00,47.6,46.0,30.09,SE,141,0.0,-999.0,93,-99.99,,,0.00,weatherlink.com 1.10,2013-08-06 05:33:00,
2013-08-06 01:48:00,47.3,45.0,30.09,SE,141,0.0,-999.0,93,-99.99,,,0.00,weatherlink.com 1.10,2013-08-06 05:48:00,
2013-08-06 02:03:00,47.1,46.0,30.10,SE,141,0.0,-999.0,94,-99.99,,,0.00,weatherlink.com 1.10,2013-08-06 06:03:00,
2013-08-06 02:18:00,46.8,45.0,30.10,SE,141,0.0,-999.0,94,-99.99,,,0.00,weatherlink.com 1.10,2013-08-06 06:18:00,
2013-08-06 02:33:00,46.6,45.0,30.10,SE,141,0.0,-999.0,94,-99.99,,,0.00,weatherlink.com 1.10,2013-08-06 06:33:00,
2013-08-06 02:48:00,46.4,45.0,30.10,SE,141,0.0,-999.0,94,-99.99,,,0.00,weatherlink.com 1.10,2013-08-06 06:48:00,
2013-08-06 03:03:00,46.1,45.0,30.10,SE,141,0.0,-999.0,94,-99.99,,,0.00,weatherlink.com 1.10,2013-08-06 07:03:00,
2013-08-06 03:18:00,45.8,44.0,30.11,SE,141,0.0,-999.0,94,-99.99,,,0.00,weatherlink.com 1.10,2013-08-06 07:18:00,
2013-08-06 03:33:00,45.5,44.0,30.11,SE,141,0.0,-999.0,95,-99.99,,,0.00,weatherlink.com 1.10,2013-08-06 07:33:00,
2013-08-06 03:48:00,45.4,44.0,30.11,SE,141,0.0,-999.0,95,-99.99,,,0.00,weatherlink.com 1.10,2013-08-06 07:48:00,
2013-08-06 04:03:00,45.2,44.0,30.11,SE,141,0.0,-999.0,95,-99.99,,,0.00,weatherlink.com 1.10,2013-08-06 08:03:00,
2013-08-06 04:18:00,45.0,44.0,30.11,SE,141,0.0,-999.0,95,-99.99,,,0.00,weatherlink.com 1.10,2013-08-06 08:18:00,
2013-08-06 04:33:00,45.0,44.0,30.11,SE,141,0.0,-999.0,95,-99.99,,,0.00,weatherlink.com 1.10,2013-08-06 08:33:00,
2013-08-06 04:48:00,45.0,44.0,30.12,SE,141,0.0,-999.0,96,-99.99,,,0.00,weatherlink.com 1.10,2013-08-06 08:48:00,
2013-08-06 05:03:00,44.9,44.0,30.12,SE,141,0.0,-999.0,96,-99.99,,,0.00,weatherlink.com 1.10,2013-08-06 09:03:00,
2013-08-06 05:18:00,44.8,44.0,30.12,SE,141,0.0,-999.0,96,-99.99,,,0.00,weatherlink.com 1.10,2013-08-06 09:18:00,
2013-08-06 05:33:00,44.6,44.0,30.13,SE,141,0.0,-999.0,96,-99.99,,,0.00,weatherlink.com 1.10,2013-08-06 09:33:00,
2013-08-06 05:48:00,44.5,44.0,30.13,SE,141,0.0,-999.0,96,-99.99,,,0.00,weatherlink.com 1.10,2013-08-06 09:48:00,
2013-08-06 06:03:00,44.5,44.0,30.13,SE,141,0.0,-999.0,96,-99.99,,,0.00,weatherlink.com 1.10,2013-08-06 10:03:00,
2013-08-06 06:18:00,44.6,44.0,30.14,SE,141,0.0,-999.0,96,-99.99,,,0.00,weatherlink.com 1.10,2013-08-06 10:18:00,
2013-08-06 06:33:00,44.9,44.0,30.14,SE,141,0.0,-999.0,97,-99.99,,,0.00,weatherlink.com 1.10,2013-08-06 10:33:00,
2013-08-06 06:48:00,45.6,45.0,30.14,SE,141,0.0,-999.0,97,-99.99,,,0.00,weatherlink.com 1.10,2013-08-06 10:48:00,
2013-08-06 07:03:00,46.7,46.0,30.15,SE,141,0.0,-999.0,97,-99.99,,,0.00,weatherlink.com 1.10,2013-08-06 11:03:00,
2013-08-06 07:18:00,47.6,47.0,30.15,SE,141,0.0,-999.0,98,-99.99,,,0.00,weatherlink.com 1.10,2013-08-06 11:18:00,
2013-08-06 07:33:00,48.1,47.0,30.15,SE,141,0.0,-999.0,97,-99.99,,,0.00,weatherlink.com 1.10,2013-08-06 11:33:00,
2013-08-06 07:48:00,48.6,48.0,30.16,SE,141,0.0,-999.0,97,-99.99,,,0.00,weatherlink.com 1.10,2013-08-06 11:48:00,
2013-08-06 08:03:00,49.6,49.0,30.16,SE,141,0.0,-999.0,98,-99.99,,,0.00,weatherlink.com 1.10,2013-08-06 12:03:00,
2013-08-06 08:18:00,51.3,51.0,30.16,SE,141,0.0,-999.0,98,-99.99,,,0.00,weatherlink.com 1.10,2013-08-06 12:18:00,
2013-08-06 08:33:00,54.8,54.0,30.16,SE,141,0.0,-999.0,98,-99.99,,,0.00,weatherlink.com 1.10,2013-08-06 12:33:00,
2013-08-06 08:48:00,59.0,59.0,30.17,SE,141,0.0,-999.0,98,-99.99,,,0.00,weatherlink.com 1.10,2013-08-06 12:48:00,
2013-08-06 09:04:00,63.8,61.0,30.16,SE,141,0.0,-999.0,89,-99.99,,,0.00,weatherlink.com 1.10,2013-08-06 13:04:00,
2013-08-06 09:19:00,67.3,61.0,30.16,SE,141,0.0,-999.0,80,-99.99,,,0.00,weatherlink.com 1.10,2013-08-06 13:19:00,
2013-08-06 09:34:00,69.1,58.0,30.16,SE,141,0.0,-999.0,67,-99.99,,,0.00,weatherlink.com 1.10,2013-08-06 13:34:00,
2013-08-06 09:49:00,70.6,60.0,30.17,SE,141,0.0,-999.0,68,-99.99,,,0.00,weatherlink.com 1.10,2013-08-06 13:49:00,
2013-08-06 10:04:00,72.3,62.0,30.17,SE,141,0.0,-999.0,70,-99.99,,,0.00,weatherlink.com 1.10,2013-08-06 14:04:00,
2013-08-06 10:19:00,72.7,54.0,30.17,SE,130,0.0,-999.0,53,-99.99,,,0.00,weatherlink.com 1.10,2013-08-06 14:19:00,
2013-08-06 10:34:00,73.5,55.0,30.16,SSE,157,0.0,-999.0,53,-99.99,,,0.00,weatherlink.com 1.10,2013-08-06 14:34:00,
2013-08-06 10:49:00,74.8,54.0,30.16,South,172,0.0,-999.0,49,-99.99,,,0.00,weatherlink.com 1.10,2013-08-06 14:49:00,
2013-08-06 11:04:00,74.4,54.0,30.16,SSW,207,1.0,-999.0,50,-99.99,,,0.00,weatherlink.com 1.10,2013-08-06 15:04:00,
2013-08-06 11:19:00,73.9,57.0,30.16,ESE,109,0.0,-999.0,55,-99.99,,,0.00,weatherlink.com 1.10,2013-08-06 15:19:00,
2013-08-06 11:34:00,76.1,60.0,30.16,ESE,109,0.0,-999.0,58,-99.99,,,0.00,weatherlink.com 1.10,2013-08-06 15:34:00,
2013-08-06 11:49:00,76.4,56.0,30.16,East,88,1.0,-999.0,49,-99.99,,,0.00,weatherlink.com 1.10,2013-08-06 15:49:00,
2013-08-06 12:04:00,75.6,57.0,30.16,NE,38,2.0,-999.0,53,-99.99,,,0.00,weatherlink.com 1.10,2013-08-06 16:04:00,
2013-08-06 12:19:00,76.0,56.0,30.15,South,178,2.0,-999.0,50,-99.99,,,0.00,weatherlink.com 1.10,2013-08-06 16:19:00,
2013-08-06 12:34:00,76.4,57.0,30.16,East,91,0.0,-999.0,52,-99.99,,,0.00,weatherlink.com 1.10,2013-08-06 16:34:00,
2013-08-06 12:49:00,76.9,56.0,30.16,ENE,73,3.0,-999.0,49,-99.99,,,0.00,weatherlink.com 1.10,2013-08-06 16:49:00,
2013-08-06 13:04:00,75.8,55.0,30.16,East,92,2.0,-999.0,49,-99.99,,,0.00,weatherlink.com 1.10,2013-08-06 17:04:00,
2013-08-06 13:19:00,75.3,56.0,30.16,East,92,1.0,-999.0,51,-99.99,,,0.00,weatherlink.com 1.10,2013-08-06 17:19:00,
2013-08-06 13:34:00,76.5,56.0,30.16,East,86,0.0,-999.0,49,-99.99,,,0.00,weatherlink.com 1.10,2013-08-06 17:34:00,
2013-08-06 13:49:00,75.9,57.0,30.16,SE,143,0.0,-999.0,52,-99.99,,,0.00,weatherlink.com 1.10,2013-08-06 17:49:00,
2013-08-06 14:04:00,77.0,57.0,30.15,SE,130,0.0,-999.0,50,-99.99,,,0.00,weatherlink.com 1.10,2013-08-06 18:04:00,
2013-08-06 14:19:00,77.0,59.0,30.15,ENE,61,0.0,-999.0,54,-99.99,,,0.00,weatherlink.com 1.10,2013-08-06 18:19:00,
2013-08-06 14:34:00,77.4,56.0,30.14,East,98,2.0,-999.0,48,-99.99,,,0.00,weatherlink.com 1.10,2013-08-06 18:34:00,
2013-08-06 14:49:00,76.7,58.0,30.14,SSW,209,0.0,-999.0,53,-99.99,,,0.00,weatherlink.com 1.10,2013-08-06 18:49:00,
2013-08-06 15:04:00,76.8,56.0,30.14,ESE,108,0.0,-999.0,49,-99.99,,,0.00,weatherlink.com 1.10,2013-08-06 19:04:00,
2013-08-06 15:19:00,76.3,56.0,30.15,East,80,1.0,-999.0,49,-99.99,,,0.00,weatherlink.com 1.10,2013-08-06 19:19:00,
2013-08-06 15:34:00,76.1,56.0,30.15,NW,317,0.0,-999.0,50,-99.99,,,0.00,weatherlink.com 1.10,2013-08-06 19:34:00,
2013-08-06 15:49:00,77.5,56.0,30.14,ESE,116,0.0,-999.0,48,-99.99,,,0.00,weatherlink.com 1.10,2013-08-06 19:49:00,
2013-08-06 16:04:00,77.1,56.0,30.14,East,80,0.0,-999.0,48,-99.99,,,0.00,weatherlink.com 1.10,2013-08-06 20:04:00,
2013-08-06 16:19:00,77.9,55.0,30.14,SSW,202,2.0,-999.0,45,-99.99,,,0.00,weatherlink.com 1.10,2013-08-06 20:19:00,
2013-08-06 16:34:00,75.7,59.0,30.15,West,271,0.0,-999.0,57,-99.99,,,0.00,weatherlink.com 1.10,2013-08-06 20:34:00,
2013-08-06 16:49:00,75.4,55.0,30.14,SSE,164,0.0,-999.0,50,-99.99,,,0.00,weatherlink.com 1.10,2013-08-06 20:49:00,
2013-08-06 17:04:00,75.5,55.0,30.14,NNW,336,1.0,-999.0,50,-99.99,,,0.00,weatherlink.com 1.10,2013-08-06 21:04:00,
2013-08-06 17:19:00,75.2,55.0,30.14,ENE,71,0.0,-999.0,49,-99.99,,,0.00,weatherlink.com 1.10,2013-08-06 21:19:00,
2013-08-06 17:34:00,74.9,55.0,30.14,East,80,0.0,-999.0,51,-99.99,,,0.00,weatherlink.com 1.10,2013-08-06 21:34:00,
2013-08-06 17:49:00,74.2,58.0,30.14,ESE,112,0.0,-999.0,57,-99.99,,,0.00,weatherlink.com 1.10,2013-08-06 21:49:00,
2013-08-06 18:04:00,73.6,60.0,30.14,ESE,112,0.0,-999.0,62,-99.99,,,0.00,weatherlink.com 1.10,2013-08-06 22:04:00,
2013-08-06 18:19:00,72.6,57.0,30.15,ESE,112,0.0,-999.0,59,-99.99,,,0.00,weatherlink.com 1.10,2013-08-06 22:19:00,
2013-08-06 18:34:00,72.2,60.0,30.15,ESE,112,1.0,-999.0,65,-99.99,,,0.00,weatherlink.com 1.10,2013-08-06 22:34:00,
2013-08-06 18:49:00,71.2,61.0,30.14,SSE,155,0.0,-999.0,69,-99.99,,,0.00,weatherlink.com 1.10,2013-08-06 22:49:00,
2013-08-06 19:04:00,70.0,61.0,30.14,SSW,205,0.0,-999.0,74,-99.99,,,0.00,weatherlink.com 1.10,2013-08-06 23:04:00,
2013-08-06 19:19:00,68.9,60.0,30.15,SSW,205,0.0,-999.0,74,-99.99,,,0.00,weatherlink.com 1.10,2013-08-06 23:19:00,
2013-08-06 19:34:00,67.5,60.0,30.16,SSW,205,0.0,-999.0,76,-99.99,,,0.00,weatherlink.com 1.10,2013-08-06 23:34:00,
2013-08-06 19:49:00,66.2,59.0,30.16,SSW,205,0.0,-999.0,78,-99.99,,,0.00,weatherlink.com 1.10,2013-08-06 23:49:00,
2013-08-06 20:04:00,65.2,59.0,30.16,SSW,205,0.0,-999.0,79,-99.99,,,0.00,weatherlink.com 1.10,2013-08-07 00:04:00,
2013-08-06 20:19:00,64.1,57.0,30.16,SSW,205,0.0,-999.0,79,-99.99,,,0.00,weatherlink.com 1.10,2013-08-07 00:19:00,
2013-08-06 20:34:00,63.1,57.0,30.17,SSW,205,0.0,-999.0,81,-99.99,,,0.00,weatherlink.com 1.10,2013-08-07 00:34:00,
2013-08-06 20:49:00,62.1,57.0,30.17,SSW,205,0.0,-999.0,83,-99.99,,,0.00,weatherlink.com 1.10,2013-08-07 00:49:00,
2013-08-06 21:05:00,61.1,56.0,30.18,SSW,205,0.0,-999.0,84,-99.99,,,0.00,weatherlink.com 1.10,2013-08-07 01:05:00,
2013-08-06 21:20:00,59.9,56.0,30.18,SSW,205,0.0,-999.0,86,-99.99,,,0.00,weatherlink.com 1.10,2013-08-07 01:20:00,
2013-08-06 21:35:00,59.0,56.0,30.18,SSW,205,0.0,-999.0,88,-99.99,,,0.00,weatherlink.com 1.10,2013-08-07 01:35:00,
2013-08-06 21:50:00,58.3,55.0,30.18,SSW,205,0.0,-999.0,89,-99.99,,,0.00,weatherlink.com 1.10,2013-08-07 01:50:00,
2013-08-06 22:05:00,57.8,55.0,30.18,SSW,205,0.0,-999.0,90,-99.99,,,0.00,weatherlink.com 1.10,2013-08-07 02:05:00,
2013-08-06 22:20:00,57.2,55.0,30.18,SSW,205,0.0,-999.0,91,-99.99,,,0.00,weatherlink.com 1.10,2013-08-07 02:20:00,
2013-08-06 22:35:00,56.7,55.0,30.18,SSW,205,0.0,-999.0,92,-99.99,,,0.00,weatherlink.com 1.10,2013-08-07 02:35:00,
2013-08-06 22:50:00,56.2,54.0,30.18,SSW,205,0.0,-999.0,92,-99.99,,,0.00,weatherlink.com 1.10,2013-08-07 02:50:00,
2013-08-06 23:05:00,55.9,54.0,30.18,SSW,205,0.0,-999.0,93,-99.99,,,0.00,weatherlink.com 1.10,2013-08-07 03:05:00,
2013-08-06 23:20:00,55.3,53.0,30.18,SSW,205,0.0,-999.0,93,-99.99,,,0.00,weatherlink.com 1.10,2013-08-07 03:20:00,
2013-08-06 23:35:00,55.0,53.0,30.18,SSW,205,0.0,-999.0,93,-99.99,,,0.00,weatherlink.com 1.10,2013-08-07 03:35:00,
2013-08-06 23:50:00,54.6,53.0,30.18,SSW,205,0.0,-999.0,94,-99.99,,,0.00,weatherlink.com 1.10,2013-08-07 03:50:00,